User: anonymous   Login
Location: Unspecified
(0.0000°N, 0.0000°E)
Time: 23:35:19
(UTC+00:00)
Language:

FORMOSAT 3F - Orbit

View from above orbital plane
View from above orbital plane
View from above satellite
View from above satellite

Ground track
Ground track

The orbit data is extracted from the following two-line orbital elements,

1 29052U 06011F   18142.61527571 +.00000073 +00000-0 +44763-4 0  9994
2 29052 072.0349 269.1374 0041537 239.6154 120.0874 14.28768276631594
Epoch (UTC): 22 May 2018 14:45:59
Eccentricity: 0.0041537
inclination: 72.0349°
perigee height: 766 km
apogee height: 825 km
right ascension of ascending node: 269.1374°
argument of perigee: 239.6154°
revolutions per day: 14.28768276
mean anomaly at epoch: 120.0874°
orbit number at epoch: 63159

The dashed part of the orbit path shows where the satellite is in the earth's shadow,  

DLR